User: anonymous   Login
Location: Oberwangen
(47.4286°N, 8.9679°E)
Time: 12:02:53
(UTC+00:00)
Language:

NOSS 2-3 (C) - Orbit

View from above orbital plane
View from above orbital plane
View from above satellite
View from above satellite

Ground track
Ground track

The orbit data is extracted from the following two-line orbital elements,

1 23908U 96029C   21263.15658540 0.00000050  00000-0  17014-4 0    01
2 23908  63.3550   6.9740 0739090  26.2029 333.7971 13.40972116    08
Epoch (UTC): 20 September 2021 03:45:28
Eccentricity: 0.0739090
inclination: 63.3550°
perigee height: 552 km
apogee height: 1659 km
right ascension of ascending node: 6.9740°
argument of perigee: 26.2029°
revolutions per day: 13.40972116
mean anomaly at epoch: 333.7971°
orbit number at epoch: 0

The dashed part of the orbit path shows where the satellite is in the earth's shadow,  

DLR